• Em Portugal
  • Lista de países
  • Para 7 dias
  • Temperatura da água
  • Mapas de satélite
  • Mapa do tempo
  • Widgets de tempo
  • user-avatar
    Iniciar Sessão

    Previsão horária em Etchmiadzin

    Hoje, 21 Setembro, Quinta-feira

    Tempo Temperatura Precipitação Vento Pressão Humidade
    00:00 +23°C° 0 mm 1 m/s 688 mmHg 40%
    01:00 +22°C° 0 mm 1 m/s 688 mmHg 41%
    02:00 +22°C° 0 mm 1 m/s 687 mmHg 41%
    03:00 +23°C° 0 mm 1 m/s 687 mmHg 44%
    04:00 +22°C° 0 mm 1 m/s 687 mmHg 43%
    05:00 +22°C° 0 mm 1 m/s 687 mmHg 42%
    06:00 +21°C° 0 mm 1 m/s 687 mmHg 42%
    07:00 +24°C° 0 mm 1 m/s 687 mmHg 36%
    08:00 +27°C° 0 mm 1 m/s 688 mmHg 30%
    09:00 +29°C° 0 mm 2 m/s 688 mmHg 24%
    10:00 +31°C° 0 mm 2 m/s 688 mmHg 22%
    11:00 +32°C° 0 mm 2 m/s 688 mmHg 21%
    12:00 +34°C° 0 mm 2 m/s 687 mmHg 19%
    13:00 +34°C° 0 mm 3 m/s 687 mmHg 19%
    14:00 +34°C° 0 mm 3 m/s 687 mmHg 19%
    15:00 +35°C° 0 mm 3 m/s 686 mmHg 19%
    16:00 +32°C° 0 mm 2 m/s 686 mmHg 22%
    17:00 +30°C° 0 mm 2 m/s 686 mmHg 25%
    18:00 +28°C° 0 mm 2 m/s 686 mmHg 28%
    19:00 +27°C° 0 mm 2 m/s 686 mmHg 30%
    20:00 +27°C° 0 mm 2 m/s 686 mmHg 33%
    21:00 +26°C° 0 mm 2 m/s 686 mmHg 36%
    22:00 +25°C° 0 mm 2 m/s 686 mmHg 39%
    23:00 +25°C° 0 mm 2 m/s 686 mmHg 43%

    Amanhã, 22 Setembro, Sexta-feira

    Tempo Temperatura Precipitação Vento Pressão Humidade
    00:00 +24°C° 0 mm 2 m/s 686 mmHg 46%
    01:00 +23°C° 0 mm 2 m/s 686 mmHg 48%
    02:00 +23°C° 0 mm 2 m/s 686 mmHg 50%
    03:00 +21°C° 0 mm 2 m/s 686 mmHg 52%
    04:00 +21°C° 0 mm 2 m/s 686 mmHg 53%
    05:00 +21°C° 0 mm 1 m/s 686 mmHg 53%
    06:00 +21°C° 0 mm 1 m/s 686 mmHg 53%
    07:00 +24°C° 0 mm 1 m/s 686 mmHg 44%
    08:00 +26°C° 0 mm 2 m/s 686 mmHg 35%
    09:00 +29°C° 0 mm 2 m/s 686 mmHg 26%
    10:00 +30°C° 0 mm 2 m/s 686 mmHg 24%
    11:00 +31°C° 0 mm 3 m/s 686 mmHg 21%
    12:00 +34°C° 0 mm 3 m/s 686 mmHg 19%
    13:00 +34°C° 0 mm 3 m/s 685 mmHg 19%
    14:00 +34°C° 0 mm 3 m/s 685 mmHg 18%
    15:00 +34°C° 0 mm 2 m/s 684 mmHg 18%
    16:00 +31°C° 0,2 mm 2 m/s 684 mmHg 22%
    17:00 +29°C° 0,2 mm 2 m/s 684 mmHg 27%
    18:00 +27°C° 0,2 mm 1 m/s 684 mmHg 31%
    19:00 +26°C° 0,1 mm 2 m/s 684 mmHg 35%
    20:00 +25°C° 0,1 mm 2 m/s 685 mmHg 40%
    21:00 +25°C° 0,1 mm 2 m/s 685 mmHg 45%
    22:00 +24°C° 0,1 mm 2 m/s 685 mmHg 49%
    23:00 +23°C° 0,1 mm 2 m/s 685 mmHg 54%

    Depois de amanhã, 23 Setembro, Sábado

    Tempo Temperatura Precipitação Vento Pressão Humidade
    00:00 +21°C° 0,1 mm 2 m/s 685 mmHg 58%
    01:00 +21°C° 0 mm 2 m/s 686 mmHg 60%
    02:00 +20°C° 0 mm 2 m/s 686 mmHg 61%
    03:00 +20°C° 0 mm 2 m/s 686 mmHg 62%
    04:00 +20°C° 0 mm 2 m/s 686 mmHg 63%
    05:00 +19°C° 0 mm 2 m/s 686 mmHg 63%
    06:00 +20°C° 0 mm 1 m/s 686 mmHg 63%
    07:00 +22°C° 0 mm 1 m/s 686 mmHg 55%
    08:00 +24°C° 0 mm 1 m/s 687 mmHg 46%
    09:00 +27°C° 0 mm 1 m/s 687 mmHg 37%
    10:00 +28°C° 0 mm 2 m/s 687 mmHg 34%
    11:00 +29°C° 0 mm 2 m/s 687 mmHg 30%
    12:00 +30°C° 0 mm 2 m/s 686 mmHg 26%
    13:00 +31°C° 0,1 mm 3 m/s 686 mmHg 25%
    14:00 +31°C° 0,1 mm 3 m/s 686 mmHg 25%
    15:00 +31°C° 0,1 mm 3 m/s 686 mmHg 24%
    16:00 +29°C° 0,2 mm 2 m/s 686 mmHg 29%
    17:00 +27°C° 0,2 mm 2 m/s 685 mmHg 34%
    18:00 +25°C° 0,2 mm 1 m/s 685 mmHg 38%
    19:00 +24°C° 0,2 mm 1 m/s 686 mmHg 43%
    20:00 +23°C° 0,2 mm 2 m/s 686 mmHg 47%
    21:00 +23°C° 0,2 mm 2 m/s 687 mmHg 52%
    22:00 +21°C° 0 mm 2 m/s 687 mmHg 55%
    23:00 +21°C° 0 mm 2 m/s 687 mmHg 58%

    24 Setembro, Domingo

    Tempo Temperatura Precipitação Vento Pressão Humidade
    00:00 +20°C° 0 mm 2 m/s 688 mmHg 61%
    01:00 +20°C° 0 mm 2 m/s 688 mmHg 63%
    02:00 +19°C° 0 mm 2 m/s 688 mmHg 66%
    03:00 +19°C° 0 mm 2 m/s 688 mmHg 68%
    04:00 +18°C° 0 mm 2 m/s 688 mmHg 69%
    05:00 +18°C° 0 mm 2 m/s 688 mmHg 70%
    06:00 +17°C° 0 mm 2 m/s 688 mmHg 71%
    07:00 +19°C° 0 mm 2 m/s 688 mmHg 62%
    08:00 +21°C° 0 mm 2 m/s 689 mmHg 53%
    09:00 +25°C° 0 mm 1 m/s 689 mmHg 44%
    10:00 +26°C° 0 mm 2 m/s 689 mmHg 39%
    11:00 +27°C° 0 mm 2 m/s 689 mmHg 34%
    12:00 +29°C° 0 mm 2 m/s 689 mmHg 29%
    13:00 +29°C° 0 mm 2 m/s 688 mmHg 27%
    14:00 +29°C° 0 mm 2 m/s 688 mmHg 26%
    15:00 +30°C° 0 mm 2 m/s 688 mmHg 24%
    16:00 +28°C° 0 mm 2 m/s 688 mmHg 29%
    17:00 +26°C° 0 mm 1 m/s 687 mmHg 33%
    18:00 +24°C° 0 mm 1 m/s 687 mmHg 38%
    19:00 +23°C° 0 mm 1 m/s 688 mmHg 43%
    20:00 +21°C° 0 mm 2 m/s 688 mmHg 49%
    21:00 +21°C° 0 mm 2 m/s 689 mmHg 54%
    22:00 +20°C° 0,1 mm 2 m/s 689 mmHg 57%
    23:00 +19°C° 0,1 mm 2 m/s 689 mmHg 60%

    25 Setembro, Segunda-feira

    Tempo Temperatura Precipitação Vento Pressão Humidade
    00:00 +19°C° 0,1 mm 2 m/s 689 mmHg 62%
    01:00 +18°C° 0 mm 2 m/s 688 mmHg 63%
    02:00 +18°C° 0 mm 2 m/s 688 mmHg 63%
    03:00 +18°C° 0 mm 2 m/s 688 mmHg 64%
    04:00 +18°C° 0 mm 1 m/s 688 mmHg 65%
    05:00 +18°C° 0 mm 1 m/s 688 mmHg 67%
    06:00 +16°C° 0 mm 1 m/s 688 mmHg 68%
    07:00 +20°C° 0 mm 1 m/s 688 mmHg 59%
    08:00 +22°C° 0 mm 1 m/s 689 mmHg 49%
    09:00 +25°C° 0 mm 1 m/s 689 mmHg 40%
    10:00 +26°C° 0 mm 1 m/s 689 mmHg 35%
    11:00 +27°C° 0 mm 2 m/s 689 mmHg 31%
    12:00 +29°C° 0 mm 2 m/s 688 mmHg 27%
    13:00 +29°C° 0 mm 2 m/s 688 mmHg 25%
    14:00 +29°C° 0 mm 2 m/s 688 mmHg 24%
    15:00 +30°C° 0 mm 2 m/s 687 mmHg 22%
    16:00 +28°C° 0 mm 2 m/s 687 mmHg 26%
    17:00 +26°C° 0 mm 1 m/s 687 mmHg 30%
    18:00 +23°C° 0 mm 1 m/s 687 mmHg 34%
    19:00 +23°C° 0 mm 1 m/s 687 mmHg 39%
    20:00 +21°C° 0 mm 2 m/s 687 mmHg 44%
    21:00 +21°C° 0 mm 2 m/s 688 mmHg 49%
    22:00 +20°C° 0 mm 2 m/s 687 mmHg 53%
    23:00 +20°C° 0 mm 2 m/s 687 mmHg 58%

    26 Setembro, Terça-feira

    Tempo Temperatura Precipitação Vento Pressão Humidade
    00:00 +19°C° 0 mm 2 m/s 687 mmHg 62%
    01:00 +19°C° 0 mm 2 m/s 687 mmHg 63%
    02:00 +18°C° 0 mm 2 m/s 687 mmHg 64%
    03:00 +18°C° 0 mm 2 m/s 687 mmHg 66%
    04:00 +19°C° 0 mm 1 m/s 687 mmHg 65%
    05:00 +18°C° 0 mm 1 m/s 687 mmHg 65%
    06:00 +18°C° 0 mm 1 m/s 687 mmHg 64%
    07:00 +20°C° 0 mm 1 m/s 687 mmHg 53%
    08:00 +23°C° 0 mm 2 m/s 687 mmHg 43%
    09:00 +26°C° 0 mm 2 m/s 688 mmHg 32%
    10:00 +27°C° 0 mm 2 m/s 687 mmHg 29%
    11:00 +28°C° 0 mm 3 m/s 687 mmHg 26%
    12:00 +30°C° 0 mm 3 m/s 687 mmHg 23%
    13:00 +30°C° 0,1 mm 3 m/s 686 mmHg 23%
    14:00 +30°C° 0,1 mm 3 m/s 686 mmHg 23%
    15:00 +30°C° 0,1 mm 3 m/s 685 mmHg 23%
    16:00 +28°C° 0,3 mm 3 m/s 685 mmHg 29%
    17:00 +26°C° 0,3 mm 2 m/s 685 mmHg 35%
    18:00 +24°C° 0,3 mm 1 m/s 685 mmHg 41%
    19:00 +23°C° 0,1 mm 2 m/s 685 mmHg 45%
    20:00 +23°C° 0,1 mm 2 m/s 685 mmHg 49%
    21:00 +21°C° 0,1 mm 2 m/s 685 mmHg 52%
    22:00 +21°C° 0 mm 2 m/s 685 mmHg 55%
    23:00 +20°C° 0 mm 2 m/s 685 mmHg 57%
    Mostrar mais